User: anonymous   Login
Location: Byszew
(52.1813°N, 19.2693°E)
Time: 06:34:29
(UTC+00:00)
Language:

H-2A R/B - Orbit

View from above orbital plane
View from above orbital plane
View from above satellite
View from above satellite

Ground track
Ground track

The orbit data is extracted from the following two-line orbital elements,

1 27601U 02056E   21134.52868605 -.00000034  00000-0  22430-5 0  9994
2 27601  98.1919 158.6403 0072344  12.1553 103.0183 14.31991852962072
Epoch (UTC): 14 May 2021 12:41:18
Eccentricity: 0.0072344
inclination: 98.1919°
perigee height: 733 km
apogee height: 837 km
right ascension of ascending node: 158.6403°
argument of perigee: 12.1553°
revolutions per day: 14.31991852
mean anomaly at epoch: 103.0183°
orbit number at epoch: 96207

The dashed part of the orbit path shows where the satellite is in the earth's shadow,  

DLR